TimeEDT,TemperatureF,Dew PointF,Humidity,Sea Level PressureIn,VisibilityMPH,Wind Direction,Wind SpeedMPH,Gust SpeedMPH,PrecipitationIn,Events,Conditions,WindDirDegrees,DateUTC
12:15 AM,56.1,50.0,80,29.93,10.0,ESE,6.9,-,N/A,,Clear,120,2012-10-18 04:15:00
12:35 AM,55.6,50.4,83,29.92,10.0,SE,6.9,-,N/A,,Clear,130,2012-10-18 04:35:00
12:55 AM,55.9,50.5,82,29.92,10.0,ESE,5.8,-,N/A,,Clear,120,2012-10-18 04:55:00
1:15 AM,55.0,50.5,85,29.91,10.0,ESE,5.8,-,N/A,,Clear,120,2012-10-18 05:15:00
1:35 AM,54.9,50.5,85,29.91,10.0,ESE,3.5,-,N/A,,Clear,110,2012-10-18 05:35:00
1:55 AM,54.3,50.4,86,29.92,10.0,Calm,Calm,-,N/A,,Clear,0,2012-10-18 05:55:00
2:15 AM,53.6,50.4,89,29.92,10.0,Calm,Calm,-,N/A,,Clear,0,2012-10-18 06:15:00
2:35 AM,53.1,50.4,91,29.92,10.0,Calm,Calm,-,N/A,,Scattered Clouds,0,2012-10-18 06:35:00
2:55 AM,52.7,50.4,92,29.92,10.0,Calm,Calm,-,N/A,,Mostly Cloudy,0,2012-10-18 06:55:00
3:15 AM,52.2,50.4,94,29.91,10.0,Calm,Calm,-,N/A,,Mostly Cloudy,0,2012-10-18 07:15:00
3:35 AM,51.8,50.4,95,29.90,10.0,NNE,3.5,-,N/A,,Scattered Clouds,30,2012-10-18 07:35:00
3:55 AM,51.1,50.0,96,29.90,10.0,Calm,Calm,-,N/A,,Scattered Clouds,0,2012-10-18 07:55:00
4:15 AM,50.9,49.8,96,29.90,10.0,NNE,3.5,-,N/A,,Scattered Clouds,30,2012-10-18 08:15:00
4:35 AM,50.5,49.6,97,29.90,10.0,Calm,Calm,-,N/A,,Scattered Clouds,0,2012-10-18 08:35:00
4:55 AM,50.9,50.0,97,29.90,10.0,Calm,Calm,-,N/A,,Mostly Cloudy,0,2012-10-18 08:55:00
5:15 AM,50.9,49.8,96,29.91,10.0,Calm,Calm,-,N/A,,Scattered Clouds,0,2012-10-18 09:15:00
5:35 AM,50.9,50.0,97,29.91,10.0,Calm,Calm,-,N/A,,Scattered Clouds,0,2012-10-18 09:35:00
5:55 AM,50.9,49.8,96,29.91,10.0,Calm,Calm,-,N/A,,Scattered Clouds,0,2012-10-18 09:55:00
6:15 AM,50.4,49.3,96,29.91,10.0,Calm,Calm,-,N/A,,Scattered Clouds,0,2012-10-18 10:15:00
6:35 AM,50.2,49.3,97,29.91,10.0,Calm,Calm,-,N/A,,Clear,0,2012-10-18 10:35:00
6:55 AM,50.7,49.8,97,29.91,10.0,ENE,4.6,-,N/A,,Scattered Clouds,70,2012-10-18 10:55:00
7:15 AM,52.0,50.5,95,29.91,10.0,Calm,Calm,-,N/A,,Mostly Cloudy,0,2012-10-18 11:15:00
7:35 AM,51.4,50.2,95,29.90,10.0,East,3.5,-,N/A,,Clear,90,2012-10-18 11:35:00
7:55 AM,52.2,50.9,95,29.90,10.0,Calm,Calm,-,N/A,,Clear,0,2012-10-18 11:55:00
8:15 AM,53.6,52.3,95,29.90,10.0,Calm,Calm,-,N/A,,Clear,0,2012-10-18 12:15:00
8:35 AM,56.1,54.5,94,29.91,10.0,East,3.5,-,N/A,,Mostly Cloudy,100,2012-10-18 12:35:00
8:55 AM,57.6,55.4,92,29.92,10.0,Calm,Calm,-,N/A,,Overcast,0,2012-10-18 12:55:00
9:15 AM,59.0,56.3,91,29.92,10.0,Calm,Calm,-,N/A,,Overcast,0,2012-10-18 13:15:00
9:35 AM,60.4,57.2,89,29.91,10.0,East,3.5,-,N/A,,Mostly Cloudy,90,2012-10-18 13:35:00
10:15 AM,63.9,58.1,81,29.91,10.0,Calm,Calm,-,N/A,,Overcast,0,2012-10-18 14:15:00
10:35 AM,65.1,58.6,79,29.90,10.0,South,8.1,-,N/A,,Overcast,170,2012-10-18 14:35:00
10:55 AM,65.1,58.5,79,29.90,10.0,West,4.6,-,N/A,,Overcast,280,2012-10-18 14:55:00
11:15 AM,64.2,57.9,80,29.90,7.0,WNW,3.5,-,N/A,,Overcast,300,2012-10-18 15:15:00
11:35 AM,66.2,58.6,77,29.89,10.0,NNW,3.5,-,N/A,,Mostly Cloudy,340,2012-10-18 15:35:00
12:15 PM,70.3,61.0,72,29.86,10.0,Calm,Calm,-,N/A,,Mostly Cloudy,0,2012-10-18 16:15:00
12:35 PM,72.9,63.1,71,29.85,10.0,South,6.9,-,N/A,,Overcast,170,2012-10-18 16:35:00
12:55 PM,74.3,64.0,70,29.85,10.0,South,5.8,-,N/A,,Overcast,180,2012-10-18 16:55:00
1:15 PM,75.2,64.4,69,29.84,10.0,South,5.8,-,N/A,,Overcast,170,2012-10-18 17:15:00
1:35 PM,75.7,64.2,67,29.84,10.0,South,9.2,-,N/A,,Mostly Cloudy,180,2012-10-18 17:35:00
1:55 PM,76.6,63.5,64,29.83,10.0,South,11.5,-,N/A,,Scattered Clouds,190,2012-10-18 17:55:00
2:15 PM,77.4,63.5,62,29.82,10.0,SSW,11.5,16.1,N/A,,Clear,200,2012-10-18 18:15:00
2:35 PM,76.8,63.3,63,29.82,10.0,South,6.9,-,N/A,,Scattered Clouds,190,2012-10-18 18:35:00
2:55 PM,76.6,63.7,64,29.81,10.0,South,6.9,-,N/A,,Scattered Clouds,180,2012-10-18 18:55:00
3:15 PM,77.5,63.5,62,29.80,10.0,SSE,9.2,-,N/A,,Scattered Clouds,160,2012-10-18 19:15:00
3:35 PM,78.1,62.8,59,29.79,10.0,South,9.2,-,N/A,,Scattered Clouds,170,2012-10-18 19:35:00
3:55 PM,79.5,62.2,55,29.79,10.0,SSE,5.8,-,N/A,,Mostly Cloudy,150,2012-10-18 19:55:00
4:15 PM,79.5,61.2,53,29.80,10.0,South,8.1,-,N/A,,Mostly Cloudy,190,2012-10-18 20:15:00
4:35 PM,79.3,60.8,53,29.80,10.0,South,8.1,-,N/A,,Mostly Cloudy,180,2012-10-18 20:35:00
4:55 PM,78.8,60.8,54,29.79,10.0,SSE,10.4,-,N/A,,Scattered Clouds,160,2012-10-18 20:55:00
5:15 PM,78.4,61.5,56,29.79,10.0,South,8.1,-,N/A,,Clear,170,2012-10-18 21:15:00
5:35 PM,77.5,61.3,57,29.79,10.0,South,6.9,-,N/A,,Clear,170,2012-10-18 21:35:00
5:55 PM,75.9,61.9,62,29.79,10.0,South,8.1,-,N/A,,Clear,170,2012-10-18 21:55:00
6:15 PM,75.4,62.1,63,29.80,10.0,SSE,6.9,-,N/A,,Scattered Clouds,160,2012-10-18 22:15:00
6:35 PM,74.7,62.4,66,29.80,10.0,SSE,5.8,-,N/A,,Mostly Cloudy,160,2012-10-18 22:35:00
6:55 PM,73.9,62.6,68,29.80,10.0,SSE,6.9,-,N/A,,Mostly Cloudy,160,2012-10-18 22:55:00
7:15 PM,73.0,62.6,70,29.80,10.0,SSE,8.1,-,N/A,,Scattered Clouds,160,2012-10-18 23:15:00
7:55 PM,72.9,63.1,71,29.81,10.0,SSE,6.9,-,N/A,,Overcast,150,2012-10-18 23:55:00
8:15 PM,72.3,63.5,74,29.81,10.0,SSE,5.8,-,N/A,,Scattered Clouds,150,2012-10-19 00:15:00
8:35 PM,71.1,63.5,77,29.81,10.0,SSE,5.8,-,N/A,,Mostly Cloudy,150,2012-10-19 00:35:00
8:55 PM,70.2,63.5,79,29.80,10.0,SE,6.9,-,N/A,,Scattered Clouds,130,2012-10-19 00:55:00
9:15 PM,68.7,63.7,84,29.80,10.0,SSE,6.9,-,N/A,,Clear,150,2012-10-19 01:15:00
9:35 PM,68.9,64.4,86,29.81,10.0,SSE,6.9,-,N/A,,Clear,150,2012-10-19 01:35:00
9:55 PM,68.7,64.4,86,29.81,10.0,SE,6.9,-,N/A,,Scattered Clouds,140,2012-10-19 01:55:00
10:15 PM,68.0,64.8,89,29.81,10.0,SSE,8.1,-,N/A,,Clear,150,2012-10-19 02:15:00
10:35 PM,68.2,65.5,91,29.81,10.0,South,8.1,-,N/A,,Clear,170,2012-10-19 02:35:00
10:55 PM,68.2,65.8,92,29.81,10.0,South,8.1,-,N/A,,Clear,170,2012-10-19 02:55:00
11:15 PM,68.0,66.0,93,29.80,10.0,South,5.8,-,N/A,,Clear,170,2012-10-19 03:15:00
11:55 PM,67.5,66.2,96,29.79,10.0,South,6.9,-,N/A,,Scattered Clouds,170,2012-10-19 03:55:00